Guymon, OK

12:16 AM CST on December 11, 2017 (GMT -0600)
Guymon Municipal

Weather History for KGUY - January, 2014

Change the Weather History Date:

Thursday, January 9, 2014

  Actual Average Record
Temperature  
Mean Temperature 35 °F 35 °F  
Max Temperature 54 °F 49 °F 69 °F (2005)
Min Temperature 16 °F 21 °F 2 °F (2010)
Degree Days  
Heating Degree Days 30 30  
Month to date heating degree days 303 274  
Since 1 July heating degree days 2149 2091  
Cooling Degree Days 0 0  
Month to date cooling degree days 0 0  
Year to date cooling degree days 0 0  
Moisture  
Dew Point 21 °F    
Average Humidity 60    
Maximum Humidity 92    
Minimum Humidity 28    
Precipitation  
Precipitation 0.00 in 0.01 in 0.05 in (2006)
Month to date precipitation 0.02 0.06  
Year to date precipitation 0.02 0.06  
Snow  
Snow 0.00 in - - ()
Month to date snowfall 1.0  
Since 1 July snowfall 8.2  
Snow Depth 0.00 in    
Sea Level Pressure  
Sea Level Pressure 29.97 in    
Wind  
Wind Speed 8 mph (South)    
Max Wind Speed 21 mph    
Max Gust Speed 25 mph    
Visibility 10 miles    
Events      
T = Trace of Precipitation, MM = Missing Value Source: NWS Daily Summary

Daily Weather History Graph

Daily Weather History Graph

Search for Another Location

Airport or City:

Trip Planner

Search our weather history database for the weather conditions in past years. The results will help you decide how hot, cold, wet, or windy it might be!

Date:

Astronomy

Jan. 09, 2014 Rise Set
Actual Time 7:58 AM CST 5:47 PM CST
Civil Twilight 7:30 AM CST 6:16 PM CST
Nautical Twilight 6:58 AM CST 6:48 PM CST
Astronomical Twilight 6:27 AM CST 7:19 PM CST
Moon 1:12 PM CST (1/9) 2:12 AM CST (1/9)
Length of Visible Light 10h 46m
Length of Day
9h 49m
Waxing Gibbous, 66% of the Moon is Illuminated
Jan 9
Waxing Gibbous
Jan 15
Full
Jan 23
Last Quarter
Jan 30
New
Feb 6
First Quarter

Hourly Weather History & Observations

Time (CST) Temp. Windchill Dew Point Humidity Pressure Visibility Wind Dir Wind Speed Gust Speed Precip Events Conditions
12:53 AM 26.1 °F - 21.0 °F 81% 30.19 in 10.0 mi Calm Calm - N/A   Overcast
1:53 AM 26.1 °F 20.5 °F 21.0 °F 81% 30.18 in 10.0 mi SW 4.6 mph - N/A   Overcast
2:53 AM 25.0 °F - 21.0 °F 85% 30.16 in 10.0 mi Calm Calm - N/A   Partly Cloudy
3:53 AM 21.0 °F 14.6 °F 18.0 °F 88% 30.15 in 9.0 mi South 4.6 mph - N/A   Clear
4:53 AM 18.0 °F 11.1 °F 15.1 °F 88% 30.15 in 9.0 mi SW 4.6 mph - N/A   Clear
5:53 AM 17.1 °F 11.7 °F 12.9 °F 84% 30.13 in 10.0 mi South 3.5 mph - N/A   Clear
6:53 AM 16.0 °F 8.8 °F 12.0 °F 84% 30.13 in 10.0 mi South 4.6 mph - N/A   Clear
7:53 AM 17.1 °F 8.7 °F 12.9 °F 84% 30.12 in 8.0 mi South 5.8 mph - N/A   Clear
8:53 AM 19.9 °F 9.3 °F 17.1 °F 89% 30.11 in 8.0 mi South 9.2 mph - N/A   Clear
9:53 AM 28.0 °F 17.5 °F 23.0 °F 81% 30.07 in 10.0 mi South 12.7 mph - N/A   Clear
10:53 AM 35.1 °F 25.5 °F 24.1 °F 64% 30.04 in 10.0 mi South 15.0 mph - N/A   Clear
11:53 AM 39.0 °F 29.6 °F 25.0 °F 57% 29.99 in 10.0 mi South 18.4 mph - N/A   Clear
12:53 PM 45.0 °F 37.6 °F 24.1 °F 44% 29.91 in 10.0 mi SSW 17.3 mph 25.3 mph N/A   Clear
1:53 PM 48.9 °F - 24.1 °F 38% 29.85 in 10.0 mi South 15.0 mph - N/A   Clear
2:53 PM 52.0 °F - 23.0 °F 32% 29.82 in 10.0 mi South 15.0 mph - N/A   Clear
3:53 PM 53.1 °F - 21.9 °F 30% 29.82 in 10.0 mi SSW 13.8 mph - N/A   Clear
5:53 PM 46.0 °F 44.8 °F 21.9 °F 39% 29.83 in 10.0 mi ESE 3.5 mph - N/A   Clear
6:53 PM 39.0 °F 35.7 °F 21.0 °F 49% 29.84 in 10.0 mi SE 4.6 mph - N/A   Clear
7:53 PM 37.0 °F 31.6 °F 24.1 °F 59% 29.84 in 10.0 mi SE 6.9 mph - N/A   Clear
8:53 PM 35.1 °F 27.4 °F 25.0 °F 67% 29.81 in 10.0 mi SSE 10.4 mph - N/A   Clear
9:53 PM 33.1 °F 26.9 °F 26.1 °F 75% 29.79 in 10.0 mi South 6.9 mph - N/A   Clear
10:53 PM 33.1 °F 25.5 °F 26.1 °F 75% 29.74 in 10.0 mi South 9.2 mph - N/A   Clear
11:53 PM 35.1 °F 28.6 °F 23.0 °F 61% 29.70 in 10.0 mi SW 8.1 mph - N/A   Clear